Location: Hurstbourne Priors
(51.2000°N, 1.3667°W)
Time: 19:37:20
(UTC+00:00)

Transit 4A - Pass Details

Date: 19 April 2021
Orbit: 870 x 974 km, 66.8° (Epoch: 09 May)

Event Time Altitude Azimuth Distance (km) Brightness Sun altitude
Rises 02:31:36 0° 267° (W) 3,606 - -19.9°
Exits shadow 02:34:29 - 279° (W) 2,696 10.0 -19.7°
Reaches altitude 10° 02:34:39 10° 280° (W) 2,646 10.0 -19.6°
Maximum altitude 02:39:40 25° 335° (NNW) 1,756 9.6 -19.1°
Drops below altitude 10° 02:44:35 10° 30° (NNE) 2,592 11.4 -18.6°
Sets 02:47:33 0° 44° (NE) 3,518 12.7 -18.3°
